Wind_Speed
12 11 11 10 9 8 8 7 8 7 7 6 4 3 2 2 1 1 1 3 5 7 9 10 12 13 14 16 16 17 17 17 17 17 17 17 17 18 18 19 20 20 20 20 21 21 21 21 21 21 21 22 22 22 22 22 22 23 23 24 24 24 25 25 26 26 26 26 26
14 13 13 12 11 10 9 8 7 6 5 5 4 3 2 2 0 1 3 4 6 8 10 11 13 14 15 16 16 16 16 16 16 17 17 18 18 18 19 19 19 20 20 20 20 21 21 21 21 21 22 22 22 22 23 23 23 23 24 24 25 25 25 25 26 26 26 26 26
14 14 13 13 12 10 9 7 6 5 5 4 3 3 2 1 1 2 4 6 7 9 10 11 12 13 14 14 15 15 16 16 17 17 17 18 18 18 18 19 19 19 20 20 21 21 21 22 22 22 22 22 22 23 23 23 23 23 24 24 24 24 24 24 25 25 25 25 26
13 13 13 13 11 10 8 7 6 5 4 3 2 2 0 1 2 4 5 7 8 9 10 11 12 13 14 15 15 16 17 17 17 17 17 18 18 18 18 19 19 20 20 21 22 22 23 23 23 23 23 23 23 23 23 23 23 23 23 24 24 24 24 24 24 24 24 25 25
13 13 13 12 10 8 8 7 6 4 3 2 1 0 2 3 4 5 6 8 9 10 11 13 14 14 15 16 17 17 17 17 17 17 17 18 18 18 19 19 20 21 22 22 23 23 24 24 24 24 24 23 23 23 23 23 23 23 24 24 23 23 23 24 24 24 24 24 25
13 13 12 11 9 8 7 6 4 3 2 1 1 2 3 4 5 6 7 9 11 12 13 14 15 16 17 17 18 17 17 17 17 17 17 18 18 19 20 20 21 22 23 23 24 24 24 24 24 24 24 23 23 23 23 23 23 24 24 24 24 23 23 24 24 24 24 24 25
11 11 10 9 8 7 6 4 3 2 1 1 2 3 4 5 6 8 9 11 12 14 15 15 16 17 17 17 17 17 17 17 17 17 18 19 20 20 21 22 22 23 24 24 24 24 25 24 24 24 24 23 23 23 23 23 23 24 24 24 24 24 24 24 24 24 24 25 25
9 9 8 8 7 6 5 4 3 2 2 2 2 4 5 7 8 10 11 12 13 14 15 15 16 16 16 17 17 17 17 17 18 18 19 20 21 22 22 23 23 24 24 24 25 25 25 25 24 24 24 24 23 23 23 23 23 24 25 25 25 25 24 24 24 24 25 25 26
9 8 8 7 6 6 5 4 3 2 2 3 4 6 7 8 10 11 12 13 14 14 15 15 15 16 16 17 17 17 17 18 18 19 20 21 21 22 23 23 24 24 24 24 25 25 25 25 24 24 24 24 23 24 24 24 24 25 26 26 26 26 26 26 26 26 26 27 27
9 8 7 7 6 5 4 3 3 3 4 5 6 7 8 9 10 11 12 13 13 14 14 15 15 16 16 17 17 17 17 18 19 19 20 21 21 22 23 23 23 24 24 24 24 24 24 24 24 24 24 24 24 25 25 26 26 27 27 27 27 27 27 27 27 27 28 28 28
8 7 6 5 5 4 3 4 4 5 5 6 7 7 9 10 11 11 12 13 13 14 15 15 16 16 16 16 16 17 18 18 19 19 20 21 21 22 22 23 23 23 24 24 24 24 24 24 24 24 25 25 25 26 26 27 27 28 28 28 28 28 28 29 29 28 28 29 29
6 6 5 4 4 4 4 4 5 5 6 6 7 8 9 10 11 11 12 13 13 14 15 15 15 16 16 16 17 17 18 18 19 19 20 20 21 21 22 22 23 23 24 24 24 24 24 24 25 25 26 26 27 27 27 27 27 28 28 29 29 29 29 29 29 29 29 29 29
5 5 4 4 4 4 5 5 5 6 7 8 8 9 10 10 11 11 12 12 13 14 14 15 15 15 16 16 17 17 18 18 19 19 20 21 21 22 22 23 23 24 24 25 25 25 25 25 26 26 27 27 28 28 28 28 28 28 29 29 29 29 29 29 29 29 29 29 30
6 6 6 6 5 5 5 6 7 8 9 9 10 10 11 11 11 11 11 12 13 13 14 14 15 16 16 17 17 17 18 18 19 20 21 21 22 23 23 24 24 24 25 25 25 25 25 25 26 26 27 28 28 28 28 29 29 29 29 29 29 29 30 30 30 29 29 30 30
7 7 7 7 6 7 7 8 9 10 10 10 11 10 10 10 10 11 11 12 13 13 14 15 16 16 17 17 17 18 18 19 20 21 22 22 23 23 24 24 24 24 25 25 25 25 25 26 26 27 27 28 28 29 29 29 29 29 29 29 29 29 30 30 30 30 30 30 30
8 8 8 7 7 8 9 9 10 10 10 10 10 10 10 10 11 11 12 13 13 14 15 16 17 17 17 17 18 18 19 20 21 21 22 23 23 24 24 24 24 25 25 25 25 26 26 26 27 27 28 28 28 29 29 29 29 29 29 29 29 29 30 30 30 30 30 30 30
8 7 7 8 8 9 10 10 10 10 9 9 10 10 10 11 12 13 14 14 15 15 16 17 17 18 18 19 19 19 20 21 21 22 22 23 23 24 24 25 25 25 25 26 26 26 27 27 27 28 28 28 28 28 28 28 28 29 29 29 29 29 29 29 29 29 28 28 28
7 7 8 8 9 9 9 9 9 9 9 9 10 11 11 12 14 15 15 15 16 16 17 18 18 19 19 20 20 20 21 21 22 22 23 23 24 24 25 25 26 26 26 26 26 26 27 27 27 27 28 28 28 28 28 28 28 28 29 29 29 28 28 28 27 26 26 26 26
6 7 8 8 8 9 9 9 9 9 9 10 11 12 13 14 15 16 17 17 17 17 18 19 19 19 20 20 21 21 22 22 23 23 24 24 24 25 25 26 26 26 26 26 26 26 27 27 27 27 27 28 28 28 28 28 28 28 28 28 28 27 26 25 25 25 25 26 27
6 7 7 8 8 8 8 9 9 9 10 11 12 13 14 16 17 18 18 18 18 18 19 19 20 20 21 21 22 22 23 23 23 24 24 24 25 25 25 26 26 26 26 26 26 26 26 26 27 27 27 28 28 28 28 28 28 28 28 27 26 25 25 25 25 25 26 28 29
7 7 7 7 8 8 8 9 9 10 11 12 13 14 16 17 18 18 18 18 18 18 19 19 20 21 21 22 23 23 23 24 24 24 25 25 25 26 26 26 26 26 26 26 26 26 26 26 27 27 27 28 28 28 28 28 28 27 27 26 25 24 25 25 26 27 28 30 31
6 6 6 7 7 8 9 9 10 10 12 13 14 15 16 17 18 18 18 18 18 18 19 20 20 21 22 22 23 23 24 24 24 25 25 26 26 26 26 26 26 26 26 26 26 26 26 26 27 27 27 27 27 27 27 27 27 26 25 25 25 25 25 26 27 28 29 30 31
5 6 7 7 8 9 9 10 11 12 13 14 15 16 17 17 17 17 17 18 18 19 19 20 21 21 22 23 23 24 24 25 25 26 26 26 26 26 26 26 26 26 26 26 26 26 26 26 26 26 26 26 26 27 26 26 25 24 24 24 25 26 26 27 28 28 29 30 30
6 6 7 8 9 10 10 11 12 13 14 15 16 16 16 17 17 17 17 18 18 19 20 21 21 22 23 23 24 24 25 25 26 26 26 26 26 26 26 26 26 26 26 25 25 25 25 25 25 26 26 26 26 26 25 24 24 23 23 24 25 25 26 27 28 29 29 30 30
7 8 9 10 11 11 11 12 13 14 15 15 15 16 16 16 16 17 17 18 19 20 21 22 22 23 23 24 24 25 25 25 26 26 26 26 26 26 26 25 25 25 25 25 25 25 25 26 26 26 25 24 23 23 22 22 22 22 22 23 24 25 26 28 29 29 30 30 30
9 10 11 11 12 12 12 13 13 14 15 15 15 15 15 15 16 17 18 19 20 21 22 22 23 24 24 24 24 24 24 24 24 25 25 25 25 25 25 25 25 25 25 25 25 25 26 26 26 24 22 21 20 19 20 21 21 22 22 23 24 25 26 27 29 29 29 29 29
10 11 11 11 12 12 12 13 14 14 14 14 14 14 15 16 17 18 19 20 21 22 22 23 23 23 23 23 23 23 24 24 24 24 24 25 25 25 26 25 25 25 25 25 25 25 25 25 24 22 20 19 19 19 20 21 22 23 23 23 24 25 26 27 28 29 29 29 29
11 11 11 11 11 12 13 13 13 13 13 13 13 14 15 16 18 19 20 21 21 22 22 22 22 22 22 22 22 23 24 24 24 25 25 25 26 26 26 26 25 25 25 25 25 25 25 24 23 22 21 21 21 21 23 23 24 24 24 24 25 25 26 27 27 27 28 28 28
11 11 11 11 12 13 13 13 12 12 12 12 13 15 16 17 19 20 20 21 21 22 22 22 22 22 22 23 23 24 25 25 25 26 26 26 26 25 25 25 25 25 25 25 25 25 25 24 24 24 24 24 23 23 24 24 25 25 25 25 25 25 26 26 26 27 27 27 27
12 12 12 13 13 13 13 12 11 11 12 13 14 16 17 18 19 20 20 21 21 22 22 22 22 23 23 24 25 25 25 25 25 25 25 25 25 25 25 25 25 25 25 25 25 25 25 25 25 26 26 26 26 25 25 25 25 25 25 25 25 26 26 27 27 28 28 27 27
13 13 13 14 14 14 12 11 11 11 12 13 15 17 18 19 20 20 21 21 22 22 22 23 23 24 24 24 25 25 25 25 25 25 25 25 25 25 25 25 25 25 25 25 25 25 26 26 26 27 27 27 27 26 26 26 25 25 25 26 26 27 27 27 28 28 28 28 28
14 14 14 14 14 13 12 11 11 11 12 14 16 17 19 19 20 20 21 21 22 22 23 23 23 24 24 24 24 25 25 25 25 25 25 25 25 25 25 25 25 25 25 25 25 26 26 27 28 28 28 28 28 27 27 26 26 26 26 27 28 28 28 28 28 28 29 29 29
15 15 14 14 13 12 11 10 11 12 13 15 17 18 19 20 21 21 22 22 22 22 22 22 23 23 24 24 25 25 25 25 25 25 25 25 24 24 25 25 25 25 25 25 26 27 28 28 29 29 28 28 28 28 27 27 26 26 26 27 27 28 28 28 28 28 29 29 29
15 14 14 13 12 11 10 10 11 13 14 16 18 19 20 20 21 21 22 22 22 22 22 22 23 23 24 24 24 25 25 25 25 25 25 24 24 24 24 24 25 25 25 26 27 28 28 29 29 29 28 28 28 28 27 27 26 26 26 27 27 28 28 28 29 29 29 29 29
15 14 13 12 11 10 10 11 12 14 16 17 18 19 20 20 21 21 21 21 22 22 22 22 23 23 24 24 24 25 25 25 25 25 24 24 24 23 24 24 25 25 26 26 27 28 29 29 29 28 28 29 28 27 27 27 26 26 26 27 27 27 27 28 28 28 29 29 29
14 12 11 9 9 9 10 11 13 15 16 17 18 19 20 20 20 21 21 21 21 22 22 23 23 23 24 24 24 24 24 24 24 24 24 24 23 23 24 24 25 26 26 27 28 28 28 29 29 29 29 29 28 27 26 25 25 25 26 26 26 26 27 27 27 28 28 28 29
11 9 7 6 7 9 10 12 14 15 16 18 19 20 20 20 20 21 21 21 21 22 22 23 23 23 24 24 24 24 24 24 24 24 24 23 23 23 24 25 26 27 27 28 28 28 28 29 29 29 29 29 28 27 26 25 25 25 25 25 26 26 26 26 26 26 26 26 27
8 6 5 6 8 10 11 13 14 16 17 19 20 20 20 20 20 20 21 21 21 22 22 23 23 23 23 24 24 24 24 24 24 23 23 23 22 23 24 25 27 28 28 28 28 28 29 29 30 30 30 29 29 28 27 26 25 25 25 25 25 25 24 23 22 22 22 22 23
4 4 5 7 9 11 12 14 15 17 19 20 20 20 20 20 20 20 21 21 21 21 22 23 23 23 24 24 24 24 24 24 23 22 22 22 22 23 24 25 27 28 28 28 28 29 29 30 30 30 31 31 30 28 27 25 25 24 24 23 22 21 20 18 18 18 19 21 22
4 5 7 9 10 12 13 15 17 18 20 20 20 20 20 20 20 21 21 21 21 21 22 22 23 23 24 24 24 24 24 24 22 21 21 22 23 24 25 26 27 28 28 28 29 29 29 30 30 31 31 30 29 28 26 24 23 21 20 19 17 17 17 17 18 20 21 23 24
6 7 8 10 11 13 15 17 18 19 20 20 19 19 19 20 20 21 21 21 21 22 22 23 23 23 24 24 24 24 24 23 22 21 21 22 23 24 25 26 27 28 28 28 28 29 29 29 30 30 30 30 29 27 25 22 19 17 16 15 15 16 18 20 21 23 23 24 25
Wind_Direction
156 152 152 154 154 158 161 158 153 148 141 133 129 137 150 133 107 49 325 306 293 288 287 286 284 284 284 283 282 281 281 282 284 286 288 289 290 292 294 297 298 297 297 296 295 295 294 294 293 292 291 290 289 289 289 288 288 288 287 286 285 284 283 283 282 281 280 279 278
139 144 147 149 149 152 154 155 153 147 136 130 131 138 146 144 167 290 292 291 289 286 285 283 282 282 282 282 281 280 281 284 286 287 287 287 288 290 292 294 294 294 294 294 294 294 294 293 293 292 290 289 288 288 287 287 287 286 285 284 283 282 282 281 280 280 280 279 278
138 143 147 148 146 144 145 150 149 142 136 139 142 143 144 159 272 291 293 292 292 291 289 287 285 284 283 282 281 281 283 285 285 285 285 286 287 288 290 291 291 292 292 292 292 292 291 291 290 290 289 287 287 286 286 285 285 284 284 283 282 282 281 280 279 279 279 278 278
140 142 144 144 143 142 144 150 148 147 148 148 149 149 169 295 297 296 294 294 293 291 289 287 285 284 282 281 282 283 284 284 284 284 285 286 287 288 288 289 290 290 290 290 289 289 288 288 288 287 286 285 285 284 284 284 283 283 282 281 281 281 280 279 279 279 278 278 277
134 135 136 138 145 148 144 141 142 145 150 155 157 302 305 301 297 295 295 294 292 289 287 286 283 282 281 282 283 284 284 283 283 284 285 287 287 288 288 289 289 288 288 287 287 286 286 286 286 285 284 284 283 282 281 282 281 281 280 280 280 279 279 279 279 279 278 277 277
130 131 133 135 137 141 143 143 148 153 161 185 293 304 299 295 296 297 297 295 292 289 287 284 282 281 281 282 282 282 282 282 283 284 286 287 287 288 288 287 287 286 286 285 285 285 285 285 284 284 283 282 281 280 280 280 279 279 279 278 278 278 278 278 278 278 278 277 277
132 133 135 138 140 142 147 157 166 177 194 244 280 289 290 294 298 300 298 295 292 289 285 283 282 281 281 281 280 279 279 281 282 283 285 285 286 286 286 285 285 284 284 283 283 283 283 283 283 283 282 281 280 280 279 278 278 277 277 277 277 277 277 277 277 277 277 277 277
135 136 138 142 145 147 153 164 174 187 208 245 273 285 293 297 300 298 295 292 288 286 283 282 281 280 280 278 277 277 278 281 282 283 283 284 284 284 283 283 282 282 281 281 281 281 281 281 281 280 280 279 279 278 278 277 277 276 276 276 276 276 276 276 276 276 276 276 276
139 141 143 145 148 151 156 166 178 202 234 260 276 286 291 294 294 292 289 286 284 283 282 281 280 280 279 276 276 277 280 282 283 283 283 283 282 282 281 281 280 280 279 279 279 278 278 278 278 277 276 276 276 276 276 276 276 276 276 276 277 277 276 275 275 275 275 275 275
144 145 148 151 155 161 169 183 205 232 252 266 276 281 284 287 287 285 283 282 282 282 281 280 280 279 278 276 278 280 283 284 285 284 284 283 282 281 280 280 279 279 279 278 278 277 277 276 275 275 274 274 274 275 275 275 275 276 276 276 276 276 276 275 275 275 275 275 275
147 151 156 161 170 182 200 219 236 251 263 272 278 281 282 284 284 282 281 282 282 281 280 280 280 279 279 280 283 285 287 287 286 286 285 283 282 282 281 281 280 280 280 280 280 280 279 278 277 276 276 276 275 276 275 275 275 275 275 275 275 275 275 275 275 275 275 275 275
154 160 169 180 195 212 228 242 253 264 274 280 284 284 284 284 282 281 281 281 281 280 280 280 281 282 284 286 288 288 288 288 287 287 286 285 285 284 284 284 284 284 284 284 284 283 283 282 281 280 280 279 278 277 277 276 276 275 275 275 275 275 275 275 274 274 274 274 274
169 180 195 208 220 231 242 254 264 273 279 282 284 283 282 282 281 281 280 281 281 281 282 283 284 286 288 289 289 288 288 288 288 288 288 287 287 287 287 286 286 286 286 285 285 285 284 283 282 282 281 280 279 279 278 277 277 276 276 276 276 275 275 275 275 275 274 274 274
197 209 218 225 232 239 249 259 268 274 279 281 281 280 279 280 281 281 281 282 283 285 287 288 289 289 288 288 287 287 287 288 288 288 288 288 288 287 287 286 286 286 286 285 285 284 284 283 282 282 281 281 281 280 280 279 279 278 278 277 277 277 276 276 276 276 276 276 275
220 226 229 231 236 244 253 262 270 275 278 278 278 278 279 280 282 284 286 288 290 291 292 291 290 289 287 287 286 287 287 288 288 288 288 288 287 287 287 286 286 286 286 286 286 285 284 284 283 283 283 282 282 282 282 281 281 280 280 279 279 279 279 279 279 278 278 278 277
230 232 234 237 245 254 262 269 274 277 277 277 278 280 282 285 288 291 292 294 294 294 292 291 289 288 287 287 287 287 287 287 288 288 287 287 287 287 287 287 287 287 287 287 287 286 286 285 285 284 284 284 283 283 283 282 282 281 281 280 280 280 280 280 280 280 280 280 279
235 239 245 252 260 267 272 277 278 278 278 279 281 285 289 292 294 296 296 296 295 293 291 289 288 287 287 287 287 287 287 287 287 287 286 286 287 287 287 287 287 287 287 287 287 287 286 286 285 285 285 285 285 284 284 284 283 282 282 281 281 281 280 281 281 281 282 282 282
246 252 259 265 271 275 278 279 279 279 281 284 288 292 295 297 298 298 297 295 293 292 290 288 287 287 287 287 286 286 286 286 286 285 285 285 286 286 287 287 287 287 288 287 287 287 287 286 286 286 286 286 286 285 285 284 283 282 282 281 281 281 281 282 283 284 285 285 285
264 269 272 274 278 280 281 282 283 285 288 291 295 298 299 299 299 297 295 293 291 290 289 288 287 287 286 286 286 286 286 285 285 285 285 285 286 286 287 287 288 288 288 288 288 287 287 287 287 286 286 286 285 285 284 283 282 282 281 281 281 281 282 283 285 286 287 287 286
280 282 283 282 283 284 285 286 288 291 294 297 299 300 299 297 296 294 293 291 290 290 289 289 288 287 287 286 286 286 286 285 285 285 286 286 286 287 287 287 288 288 288 288 288 287 287 286 286 286 285 285 284 283 283 282 282 281 281 282 282 282 283 284 285 286 287 286 285
282 286 289 289 289 288 288 289 292 295 298 298 297 296 295 294 293 292 291 290 290 290 290 290 289 288 288 287 287 286 286 286 286 286 286 286 286 286 286 287 287 287 287 287 287 286 286 285 285 284 284 284 283 283 282 282 282 281 282 282 283 283 283 284 284 285 285 285 283
292 297 300 300 297 294 292 293 294 295 294 293 291 291 291 292 292 292 292 292 293 293 292 291 290 289 288 288 287 287 287 286 286 285 285 285 285 285 286 286 286 286 286 286 285 285 285 284 284 284 284 284 283 283 283 283 283 283 282 282 281 281 281 282 282 282 282 281 280
313 313 310 307 300 294 290 289 288 288 287 286 287 288 290 291 292 293 294 295 295 295 294 293 291 290 289 289 288 288 287 287 286 285 285 285 285 285 285 285 286 285 285 285 285 285 285 285 285 285 285 284 284 284 284 284 284 283 282 280 280 279 279 280 280 279 279 277 276
314 310 302 292 284 279 277 277 278 279 281 283 286 289 291 292 294 295 296 297 297 296 295 294 293 292 291 290 289 288 288 287 286 286 285 285 284 284 285 285 285 285 285 284 284 284 284 285 285 286 285 285 285 284 284 283 282 281 280 280 279 279 279 279 278 278 276 275 273
292 284 275 268 264 264 266 269 273 276 280 284 287 290 293 295 296 298 299 299 298 297 296 295 294 293 292 291 290 289 288 287 286 285 285 285 285 284 285 285 285 285 285 285 285 285 285 285 286 286 286 286 285 285 284 282 281 280 280 280 280 280 280 279 278 276 275 273 272
270 262 256 255 256 260 264 269 274 279 283 287 290 293 296 297 299 300 300 300 299 298 297 296 295 294 293 292 291 290 288 287 287 286 286 286 286 286 286 285 285 286 286 285 285 286 286 287 287 288 289 289 289 287 286 284 282 282 281 281 280 280 279 278 277 276 273 272 270
254 252 252 255 258 263 269 274 279 283 287 291 294 296 298 300 301 301 300 299 299 298 297 297 296 295 294 293 292 291 290 290 289 289 289 288 288 288 288 287 287 287 287 287 287 288 289 290 292 293 294 295 293 291 288 287 285 285 284 283 281 280 278 277 276 275 273 272 270
254 255 258 262 266 270 275 279 283 286 290 293 297 299 301 301 301 300 299 299 298 298 298 297 297 296 296 295 294 293 293 293 293 292 292 291 290 290 289 289 289 289 289 290 290 292 293 294 296 298 298 298 297 294 291 289 288 287 286 284 282 280 278 276 274 273 273 272 271
264 265 267 270 273 275 278 281 283 287 291 296 299 301 301 301 300 299 299 299 299 299 299 299 299 298 297 296 295 295 295 295 294 294 293 293 293 292 292 292 292 292 293 293 294 295 296 298 298 299 299 299 299 297 294 292 290 289 287 284 281 278 276 274 273 272 272 271 271
269 270 271 272 274 275 277 279 283 288 293 297 299 300 300 300 299 299 299 299 299 299 299 299 299 298 297 297 296 296 296 296 296 296 296 296 296 296 296 296 296 295 295 296 297 298 298 299 299 299 298 299 299 298 295 292 289 287 284 281 278 275 273 272 271 271 270 269 269
268 268 269 270 271 272 274 276 281 287 292 296 298 298 298 298 298 298 299 299 299 299 299 299 298 297 297 297 297 297 297 297 298 298 298 299 299 299 299 298 297 297 297 298 298 299 299 299 299 298 298 298 298 296 293 289 285 282 279 276 275 273 272 271 270 270 269 268 267
263 264 265 266 266 268 270 274 280 286 290 293 295 296 296 296 296 297 298 299 299 299 299 299 298 298 298 298 299 299 299 299 299 300 300 300 300 299 299 298 298 298 298 299 299 299 299 299 298 298 297 297 295 292 289 285 282 278 276 274 273 272 271 270 269 268 268 267 266
259 260 260 260 261 264 267 273 279 284 288 291 293 293 294 295 296 297 298 299 299 298 298 298 298 298 299 299 300 300 300 300 300 300 300 300 300 299 299 299 298 299 300 300 300 299 299 298 298 297 296 295 293 290 287 283 281 278 276 275 274 272 271 269 268 267 267 266 266
258 257 256 256 257 260 265 272 278 284 288 290 292 292 293 295 296 297 298 298 298 298 298 298 298 299 299 300 300 300 300 300 300 301 301 301 300 300 300 299 299 300 300 301 300 299 299 298 298 297 296 294 292 289 286 284 280 278 276 275 274 273 272 270 270 269 268 268 266
258 254 252 251 253 259 266 274 281 286 290 292 292 293 294 295 295 296 297 297 298 298 298 299 299 300 300 300 300 300 300 301 301 301 302 302 302 302 301 300 300 300 301 301 300 300 299 298 297 296 294 293 291 288 286 284 280 278 276 275 274 273 272 272 271 270 269 269 267
259 253 248 248 254 264 274 282 287 291 294 295 295 295 295 295 296 296 297 299 299 300 300 300 301 301 301 300 300 300 301 301 302 302 303 303 303 303 303 302 302 302 302 302 301 300 299 298 297 295 294 293 291 288 286 283 280 278 276 275 274 273 272 272 271 271 270 270 269
260 253 249 256 268 278 285 291 295 298 300 300 299 297 297 297 297 298 299 301 301 302 302 302 301 301 301 301 301 301 301 302 303 303 304 304 305 305 305 304 304 303 303 302 301 300 299 298 296 295 294 293 291 289 286 283 280 278 277 276 275 274 274 273 272 272 272 272 272
259 258 266 280 288 293 297 301 304 305 305 303 301 299 298 298 299 300 302 302 303 302 302 302 302 301 301 301 302 302 303 303 304 304 305 306 307 307 307 306 305 304 303 303 301 300 299 297 297 296 295 293 291 289 286 283 280 278 277 276 275 275 275 274 275 276 277 279 280
271 284 295 300 301 304 306 309 310 309 307 303 300 299 299 300 300 301 302 303 302 302 302 302 302 302 302 303 303 303 304 304 305 306 307 308 308 308 308 307 306 304 303 302 301 300 298 297 297 297 296 294 292 289 286 283 279 277 276 275 275 276 278 280 283 286 286 286 286
311 310 308 308 309 311 313 314 312 309 305 301 299 299 300 300 301 302 302 303 303 303 303 302 302 302 303 304 304 304 305 306 307 308 309 309 310 309 309 307 305 304 303 302 301 300 299 298 298 298 297 296 293 290 287 284 280 277 276 277 280 285 290 294 295 293 290 289 286
316 313 313 314 316 318 317 314 309 304 301 299 299 300 301 301 302 302 303 304 304 304 304 303 303 303 304 304 305 305 306 308 309 310 311 311 311 310 309 307 305 303 302 302 301 301 300 300 300 300 300 299 296 294 292 290 286 285 286 290 295 299 301 300 298 295 292 290 287
Height
772 774 776 778 779 781 782 783 784 784 785 786 787 787 788 789 789 789 790 791 792 793 794 794 794 794 794 795 795 794 794 794 793 793 792 792 791 791 791 791 790 790 790 789 789 788 788 788 787 786 786 785 785 784 784 783 783 782 782 781 780 780 779 779 778 777 777 777 776
771 773 775 777 779 781 782 783 784 784 785 786 786 787 787 788 789 789 790 791 791 792 792 793 793 793 793 793 793 793 793 792 792 791 791 791 790 790 790 789 789 789 789 788 788 787 787 786 786 785 785 784 784 783 782 782 781 781 780 779 779 779 778 777 776 776 775 775 774
771 773 775 777 779 780 782 783 784 785 785 786 786 787 787 788 788 789 789 790 791 791 791 792 792 792 792 792 792 792 792 791 791 790 790 789 789 789 789 788 788 788 787 787 786 786 785 785 785 784 784 783 782 782 781 780 780 779 779 778 777 777 776 775 775 774 774 773 773
772 774 775 777 779 781 782 783 784 784 785 786 786 787 787 788 788 789 789 789 790 790 790 791 791 791 791 791 791 790 790 790 789 789 789 788 788 788 787 787 786 786 786 785 785 784 784 784 783 783 782 781 781 780 779 779 779 778 777 776 776 775 775 774 773 773 773 772 771
773 774 776 778 779 780 782 783 784 784 785 785 786 787 787 788 788 788 789 789 789 789 790 790 790 790 790 790 789 789 789 789 788 788 787 787 786 786 786 785 785 784 784 784 784 783 783 782 782 781 780 780 779 779 778 778 777 776 776 775 774 774 773 773 772 772 771 770 770
774 775 777 778 779 780 782 783 784 784 785 785 786 787 787 788 788 788 788 788 788 789 789 789 789 789 789 788 788 788 787 787 787 786 786 785 785 784 784 784 784 783 783 782 782 782 781 781 780 779 779 778 778 777 776 776 775 775 774 773 773 772 772 771 771 770 769 769 768
775 776 777 778 779 780 781 783 783 784 784 785 786 786 787 787 787 787 787 788 788 788 788 788 788 788 787 787 787 786 786 785 785 785 784 784 783 783 783 782 782 782 781 781 780 780 779 779 779 778 777 776 776 775 774 774 774 773 772 772 771 771 770 770 769 769 768 768 767
776 777 778 779 780 781 782 783 783 784 784 785 785 786 786 786 786 787 787 787 787 787 787 787 787 786 786 786 785 785 784 784 784 783 783 782 782 781 781 781 780 780 780 779 779 778 778 777 777 776 775 775 774 773 773 773 772 771 770 770 769 769 769 768 768 767 767 766 765
776 777 779 779 780 781 782 783 783 784 784 784 785 785 785 785 786 786 786 786 786 786 786 786 785 785 784 784 784 783 783 782 782 781 781 781 780 780 779 779 779 778 778 777 777 776 776 775 775 774 774 773 772 772 771 771 770 769 769 768 768 767 767 767 766 766 765 765 764
777 778 779 780 780 781 782 783 783 784 784 784 784 784 785 785 785 785 785 785 785 785 784 784 784 784 783 783 782 782 781 781 780 780 779 779 779 778 778 777 777 776 776 775 775 774 774 774 773 772 771 771 770 770 769 769 768 768 767 766 766 765 765 765 764 764 764 763 763
777 778 779 780 780 781 782 782 783 783 783 783 784 784 784 784 784 784 784 784 784 783 783 783 782 782 782 781 781 780 780 780 779 779 778 778 777 777 776 776 775 774 774 773 773 773 772 771 770 770 769 769 768 768 767 767 766 766 765 764 764 764 763 763 763 762 762 761 761
778 778 779 780 780 781 781 782 782 783 783 783 783 783 783 783 783 783 783 783 782 782 782 781 781 781 780 780 780 779 779 779 778 778 777 776 776 775 775 774 774 773 772 772 771 771 770 769 769 768 767 767 766 766 765 764 764 764 763 762 762 761 761 760 760 760 760 759 759
778 778 779 779 780 781 781 781 782 782 782 782 782 783 783 782 782 782 782 781 781 781 780 780 780 780 779 779 779 778 778 777 777 776 776 775 774 774 773 772 772 771 770 770 769 769 768 768 767 766 765 765 764 764 763 763 762 761 761 760 760 759 759 758 758 758 758 758 757
778 778 779 779 780 780 781 781 781 781 781 782 782 782 781 781 781 781 780 780 780 779 779 779 779 779 779 778 778 777 777 776 776 775 774 774 773 772 772 771 770 769 769 768 768 767 767 766 765 764 764 763 762 762 761 761 760 759 759 758 758 757 757 756 756 756 756 755 755
777 778 778 779 779 779 780 780 780 780 780 781 780 780 780 780 779 779 779 779 779 779 779 778 778 778 778 777 777 776 776 775 774 774 773 772 772 771 770 769 769 768 767 767 766 765 765 764 764 763 762 761 760 760 759 759 758 758 757 756 756 755 755 754 754 754 754 753 753
777 777 778 778 779 779 779 779 779 779 779 779 779 779 779 779 779 779 779 779 778 778 778 778 777 777 776 776 775 775 774 774 773 773 772 771 770 769 769 768 767 766 766 765 764 764 763 762 762 761 760 759 759 758 757 757 756 756 755 754 754 754 753 753 753 752 752 751 751
776 776 777 777 778 778 778 778 778 778 778 778 778 778 778 778 778 778 778 778 778 777 777 777 776 776 775 775 774 774 773 773 772 771 770 769 769 768 767 766 765 765 764 764 763 762 761 760 760 759 759 758 757 756 756 755 754 754 753 753 752 752 751 751 751 751 750 750 749
775 775 776 776 777 777 777 777 777 778 778 778 778 778 778 778 778 778 777 777 777 776 776 775 775 774 774 774 773 772 772 771 770 769 769 768 767 766 765 765 764 763 763 762 761 760 759 759 758 757 757 756 755 754 754 753 753 752 752 751 751 750 750 750 749 749 749 749 748
774 774 775 775 776 776 776 777 777 777 777 777 777 777 777 777 777 777 777 776 776 775 775 774 774 773 773 772 772 771 770 770 769 768 767 766 765 765 764 763 762 762 761 760 759 759 758 757 756 756 755 754 754 753 752 752 751 750 750 749 749 749 748 748 748 748 748 747 747
774 774 774 775 775 776 776 776 777 777 777 777 777 777 777 777 777 776 776 775 775 774 774 773 773 772 771 771 770 769 769 768 767 766 765 765 764 763 762 762 761 760 759 759 758 757 756 756 755 754 754 753 752 751 750 750 749 749 748 748 747 747 747 747 747 746 746 746 746
774 774 774 775 775 776 776 776 777 777 777 777 777 777 777 776 776 775 774 774 774 773 773 772 771 771 770 769 769 768 767 766 766 765 764 763 762 762 761 760 759 759 758 757 756 755 755 754 753 752 752 751 750 749 749 748 747 747 746 746 745 745 745 745 745 745 745 745 744
773 774 774 775 775 776 776 776 777 777 777 777 776 776 775 775 774 774 773 773 772 772 771 771 770 769 769 768 767 766 765 764 764 763 762 762 761 760 759 759 758 757 756 755 754 754 753 752 751 751 750 749 748 748 747 746 745 745 744 744 744 744 744 744 744 744 744 743 743
773 774 774 775 776 776 776 776 776 776 776 776 775 775 774 774 773 773 772 772 771 771 770 769 769 768 767 766 765 764 764 763 762 761 760 760 759 758 757 757 756 755 754 753 753 752 751 750 749 749 748 747 746 746 745 744 744 743 743 742 742 742 742 742 742 742 742 741 740
773 774 775 775 776 776 776 776 775 775 775 774 774 773 773 772 772 771 771 770 770 769 769 768 767 766 765 764 764 763 762 761 760 759 759 758 757 756 755 755 754 753 752 751 750 750 749 749 748 747 746 746 745 744 743 743 742 742 741 741 740 740 740 740 739 739 739 738 738
773 774 774 775 775 775 774 774 774 774 773 773 772 772 772 771 771 770 770 769 769 768 767 766 765 765 764 763 762 761 760 759 758 757 756 756 755 754 754 753 752 751 750 749 749 748 748 747 746 745 744 744 743 742 742 741 741 740 740 739 739 738 738 737 737 736 736 735 735
772 773 773 773 773 773 773 773 772 772 772 771 771 771 771 770 770 769 769 768 767 767 766 765 764 763 762 761 760 759 758 758 757 756 755 754 753 752 752 751 750 749 748 747 747 746 746 745 744 744 743 742 741 740 740 739 739 739 738 738 737 736 735 735 734 734 733 733 732
771 771 771 771 771 771 771 771 771 771 771 770 770 770 770 769 769 768 768 767 766 765 764 763 762 761 760 759 759 757 756 756 755 754 753 752 751 750 749 749 748 747 746 746 745 744 744 744 743 742 741 740 740 739 739 738 737 737 736 736 735 734 733 732 731 731 730 729 729
770 770 770 770 770 770 770 770 770 770 770 769 769 769 769 769 768 767 766 765 764 764 763 762 761 760 759 758 757 756 755 754 753 752 751 750 749 749 748 747 746 745 744 744 743 743 742 742 741 740 739 739 738 738 737 736 735 735 734 734 733 732 731 730 729 728 728 727 726
769 769 769 769 769 769 769 769 769 769 769 769 769 768 768 767 767 766 765 764 763 762 761 760 759 758 757 756 755 754 753 752 751 750 749 749 748 747 746 745 744 744 743 742 742 741 740 739 739 738 737 737 736 736 735 734 734 733 732 731 731 730 729 728 727 726 725 724 724
768 768 768 768 768 768 768 768 768 768 768 768 768 767 767 766 765 764 764 763 762 761 760 759 758 757 756 754 754 752 751 750 749 749 748 747 746 745 744 743 743 742 741 741 740 739 738 737 737 736 735 735 734 734 733 733 732 731 730 729 728 727 726 725 724 724 723 722 721
767 767 767 767 767 767 767 767 767 767 767 767 767 766 765 765 764 763 762 761 760 759 758 757 756 755 754 753 752 751 750 749 748 747 746 745 744 743 742 742 741 740 739 739 738 737 736 736 735 734 734 733 733 732 731 731 730 729 728 727 726 725 724 723 722 721 720 719 718
766 766 766 766 766 766 766 766 766 766 766 766 765 765 764 763 762 761 761 760 759 758 757 756 754 753 752 751 750 749 748 747 746 745 745 744 743 742 741 740 739 739 738 737 736 735 735 734 733 733 732 732 731 730 729 728 727 726 725 724 723 722 721 720 719 718 717 716 715
764 764 764 764 764 764 764 764 764 764 764 764 764 763 762 761 761 760 759 758 757 756 755 754 753 752 751 749 749 748 747 746 745 744 743 742 741 740 739 739 738 737 736 736 735 734 733 732 731 731 730 729 729 728 727 725 724 723 722 721 720 719 718 717 716 715 714 713 712
763 763 763 763 763 763 763 763 763 763 763 763 762 762 761 760 759 758 758 757 756 754 754 753 751 750 749 748 747 746 745 744 743 743 742 741 740 739 738 737 736 735 735 734 733 732 731 730 729 729 728 727 726 725 724 723 722 720 719 718 717 716 715 714 713 712 711 710 709
761 761 762 762 762 762 762 762 762 762 762 761 761 760 759 759 758 757 756 755 754 753 752 751 750 749 748 747 746 745 744 743 742 741 740 739 739 737 736 735 734 734 733 732 731 730 729 729 728 727 726 725 724 723 721 720 719 718 716 715 714 713 712 711 710 709 708 708 706
760 760 760 761 761 761 761 761 761 761 760 760 759 759 758 757 756 755 754 754 753 751 750 749 748 747 746 745 744 744 743 742 740 739 739 738 737 736 735 734 733 732 731 731 729 729 727 726 725 724 723 722 721 720 719 717 716 714 713 712 711 710 709 708 707 706 705 704 704
759 759 759 760 760 760 760 760 760 759 759 759 758 758 757 756 755 754 753 752 751 750 749 748 747 746 745 744 743 742 741 740 739 738 737 736 735 734 734 732 731 730 729 729 728 727 725 724 723 722 721 720 719 718 716 715 713 712 710 709 708 707 706 705 704 703 703 702 701
759 759 759 759 759 759 759 759 759 759 758 758 757 756 755 754 754 753 752 751 750 749 747 746 745 744 743 742 741 740 739 739 738 737 736 735 734 733 732 731 729 729 728 727 726 725 724 722 721 720 719 718 717 715 714 712 710 709 708 706 705 704 703 703 702 701 700 699 699
758 759 759 759 759 759 759 758 758 758 758 757 756 755 754 753 752 751 750 749 749 747 746 745 744 743 742 741 740 739 738 737 737 736 735 734 733 732 731 730 728 727 726 725 724 723 721 720 719 718 717 716 714 713 711 709 708 706 705 704 703 702 701 701 700 699 699 698 697
758 758 759 759 758 758 758 758 757 757 756 755 754 754 753 752 751 750 749 748 747 746 745 744 743 742 741 740 739 738 737 736 735 734 734 733 732 731 730 729 727 726 724 724 722 721 720 719 717 716 715 714 712 710 708 707 705 704 703 702 701 700 699 699 699 698 697 695 694
758 758 758 758 758 758 757 757 757 756 755 754 753 752 751 750 749 749 748 747 746 745 744 743 741 740 739 739 737 736 735 734 734 733 732 731 730 729 729 728 726 724 723 722 721 719 718 717 715 714 713 712 710 708 706 704 703 702 701 700 700 699 698 697 696 695 694 693 691